{"data":{"norad_id":42825,"intl_designator":"2017-042A","name":"KANOPUS-V-IK","alt_names":[],"object_type":"PAYLOAD","status":"ACTIVE","operator":null,"country":"CIS","launch_date":"2017-07-14","launch_site_code":"TYMSC","launch_vehicle":null,"mission":null,"orbit_class":"UNKNOWN","rcs_meters":null,"size_class":null,"mass_kg":null,"dimensions":null,"purposes":[],"wikipedia_slug":null,"has_3d_model":false,"image_url":null,"decayed_at":null,"tle_current":{"epoch":"2026-09-20T04:26:51.332640Z","epoch_age_seconds":75586,"freshness":"FRESH","line1":"1 42825U 17042A   26263.18531635  .00001410  00000+0  63955-4 0  9993","line2":"2 42825  97.3468 166.6846 0001872  87.3036 272.8414 15.22432075509825","mean_motion":15.22432075,"eccentricity":0.0001872,"inclination_deg":97.3468,"raan_deg":166.6846,"arg_perigee_deg":87.3036,"mean_anomaly_deg":272.8414,"bstar":6.3955e-5,"rev_number":50982,"period_min":94.585500637196,"perigee_km":497.21994728075,"apogee_km":499.79456288985,"semimajor_km":6876.6442550853,"source":"CELESTRAK","updated_at":"2026-09-20T09:00:14.215282Z"}}}